Canadian, TX

5:45 AM CDT on May 30, 2017 (GMT -0500)
Hemphill County

Weather History for KHHF - March, 2014

Change the Weather History Date:

Sunday, March 16, 2014

  Actual Average (KPPA) Record (KPPA)
Temperature  
Mean Temperature 40 °F -  
Max Temperature 51 °F 59 °F 88 °F (2017)
Min Temperature 28 °F 31 °F 21 °F (1976)
Degree Days  
Heating Degree Days 26    
Moisture  
Dew Point 23 °F    
Average Humidity 49    
Maximum Humidity 79    
Minimum Humidity 29    
Precipitation  
Precipitation 0.00 in - - ()
Sea Level Pressure  
Sea Level Pressure 30.16 in    
Wind  
Wind Speed 21 mph (North)    
Max Wind Speed 37 mph    
Max Gust Speed 52 mph    
Visibility 10 miles    
Events      
Averages and records for this station are not official NWS values.
T = Trace of Precipitation, MM = Missing Value Source: NWS Daily Summary

Daily Weather History Graph

Daily Weather History Graph

Search for Another Location

Airport or City:

Trip Planner

Search our weather history database for the weather conditions in past years. The results will help you decide how hot, cold, wet, or windy it might be!

Date:

Astronomy

Mar. 16, 2014 Rise Set
Actual Time 7:50 AM CDT 7:49 PM CDT
Civil Twilight 7:25 AM CDT 8:15 PM CDT
Nautical Twilight 6:55 AM CDT 8:45 PM CDT
Astronomical Twilight 6:25 AM CDT 9:15 PM CDT
Moon 8:07 PM CDT (3/16) 7:36 AM CDT (3/16)
Length of Visible Light 12h 50m
Length of Day
11h 59m
Full, 100% of the Moon is Illuminated
Mar 16
Full
Mar 16
Full
Mar 23
Last Quarter
Mar 30
New
Apr 7
First Quarter

Hourly Weather History & Observations

Time (CDT) Temp. Windchill Dew Point Humidity Pressure Visibility Wind Dir Wind Speed Gust Speed Precip Events Conditions
12:15 AM 51.3 °F - 26.1 °F 38% 30.03 in 10.0 mi North 36.8 mph 49.5 mph N/A   Mostly Cloudy
12:35 AM 50.2 °F - 25.5 °F 38% 30.04 in 10.0 mi North 27.6 mph 43.7 mph N/A   Scattered Clouds
12:55 AM 49.1 °F - 24.8 °F 39% 30.05 in 10.0 mi North 23.0 mph 38.0 mph N/A   Scattered Clouds
1:15 AM 47.5 °F - 23.7 °F 39% 30.06 in 10.0 mi North 28.8 mph 40.3 mph N/A   Clear
1:35 AM 46.6 °F - 23.9 °F 41% 30.07 in 10.0 mi North 32.2 mph 51.8 mph N/A   Clear
1:55 AM 45.5 °F 36.9 °F 23.9 °F 43% 30.08 in 10.0 mi North 24.2 mph 35.7 mph N/A   Clear
2:15 AM 44.4 °F 35.3 °F 23.2 °F 43% 30.09 in 10.0 mi North 25.3 mph 46.0 mph N/A   Clear
2:35 AM 43.2 °F 34.2 °F 22.6 °F 44% 30.10 in 10.0 mi North 21.9 mph 35.7 mph N/A   Clear
2:55 AM 42.4 °F 32.0 °F 22.8 °F 46% 30.10 in 10.0 mi North 28.8 mph 38.0 mph N/A   Clear
3:15 AM 41.9 °F 33.1 °F 23.0 °F 47% 30.11 in 10.0 mi North 19.6 mph 33.4 mph N/A   Clear
3:35 AM 41.0 °F 30.9 °F 23.0 °F 49% 30.12 in 10.0 mi North 24.2 mph 39.1 mph N/A   Clear
3:55 AM 40.3 °F 32.2 °F 23.0 °F 50% 30.12 in 10.0 mi North 15.0 mph 27.6 mph N/A   Clear
4:15 AM 39.2 °F 29.6 °F 23.4 °F 53% 30.12 in 10.0 mi NNW 19.6 mph 29.9 mph N/A   Clear
4:35 AM 38.5 °F 28.3 °F 23.5 °F 55% 30.12 in 10.0 mi North 20.7 mph 28.8 mph N/A   Clear
4:55 AM 38.3 °F 29.0 °F 23.7 °F 56% 30.12 in 10.0 mi North 17.3 mph 27.6 mph N/A   Clear
5:15 AM 37.4 °F 26.6 °F 23.7 °F 58% 30.14 in 10.0 mi North 21.9 mph 29.9 mph N/A   Clear
5:35 AM 36.9 °F 25.6 °F 23.9 °F 59% 30.15 in 10.0 mi North 23.0 mph 31.1 mph N/A   Clear
5:55 AM 36.1 °F 25.2 °F 24.3 °F 62% 30.16 in 10.0 mi North 20.7 mph 28.8 mph N/A   Clear
6:15 AM 35.6 °F 25.2 °F 24.8 °F 65% 30.16 in 10.0 mi North 18.4 mph 23.0 mph N/A   Clear
6:35 AM 35.1 °F 24.5 °F 25.5 °F 68% 30.17 in 10.0 mi North 18.4 mph 25.3 mph N/A   Clear
7:15 AM 34.0 °F 23.8 °F 26.4 °F 74% 30.19 in 10.0 mi North 16.1 mph 26.5 mph N/A   Clear
7:35 AM 33.4 °F 22.0 °F 26.6 °F 76% 30.19 in 10.0 mi North 19.6 mph 24.2 mph N/A   Clear
7:55 AM 33.1 °F 22.2 °F 27.1 °F 79% 30.20 in 10.0 mi North 17.3 mph 26.5 mph N/A   Clear
8:15 AM 33.4 °F 23.5 °F 27.3 °F 78% 30.21 in 10.0 mi North 15.0 mph 25.3 mph N/A   Mostly Cloudy
8:35 AM 34.0 °F 23.8 °F 27.5 °F 77% 30.22 in 10.0 mi NNW 16.1 mph 21.9 mph N/A   Overcast
8:55 AM 34.7 °F 23.7 °F 27.9 °F 76% 30.23 in 10.0 mi North 19.6 mph 25.3 mph N/A   Overcast
9:15 AM 34.9 °F 23.9 °F 27.9 °F 76% 30.23 in 10.0 mi North 19.6 mph 27.6 mph N/A   Overcast
9:35 AM 36.5 °F 25.4 °F 28.4 °F 72% 30.23 in 10.0 mi North 21.9 mph 29.9 mph N/A   Mostly Cloudy
9:55 AM 38.3 °F 27.6 °F 28.2 °F 67% 30.24 in 10.0 mi North 23.0 mph 31.1 mph N/A   Scattered Clouds
10:15 AM 39.7 °F 29.7 °F 28.2 °F 63% 30.24 in 10.0 mi North 21.9 mph 29.9 mph N/A   Clear
10:35 AM 39.9 °F 29.2 °F 27.9 °F 62% 30.26 in 10.0 mi North 25.3 mph 33.4 mph N/A   Clear
10:55 AM 41.5 °F 31.0 °F 27.3 °F 57% 30.26 in 10.0 mi North 27.6 mph 36.8 mph N/A   Scattered Clouds
11:15 AM 43.0 °F 32.9 °F 27.0 °F 53% 30.26 in 10.0 mi NNE 27.6 mph 36.8 mph N/A   Scattered Clouds
11:35 AM 43.3 °F 34.0 °F 26.4 °F 51% 30.26 in 10.0 mi North 24.2 mph 34.5 mph N/A   Scattered Clouds
11:55 AM 43.3 °F 33.4 °F 25.7 °F 50% 30.26 in 10.0 mi NNE 27.6 mph 35.7 mph N/A   Mostly Cloudy
12:15 PM 44.4 °F 36.4 °F 25.7 °F 48% 30.26 in 10.0 mi North 19.6 mph 32.2 mph N/A   Mostly Cloudy
12:35 PM 43.7 °F 36.0 °F 25.5 °F 49% 30.25 in 10.0 mi North 17.3 mph 25.3 mph N/A   Mostly Cloudy
12:55 PM 44.2 °F 35.4 °F 25.3 °F 47% 30.25 in 10.0 mi NNE 23.0 mph 33.4 mph N/A   Mostly Cloudy
1:15 PM 45.7 °F 37.8 °F 25.0 °F 44% 30.24 in 10.0 mi NNE 20.7 mph 29.9 mph N/A   Mostly Cloudy
1:55 PM 46.8 °F - 23.7 °F 40% 30.22 in 10.0 mi North 19.6 mph 34.5 mph N/A   Scattered Clouds
2:15 PM 47.3 °F - 23.2 °F 39% 30.21 in 10.0 mi North 24.2 mph 32.2 mph N/A   Scattered Clouds
2:35 PM 47.8 °F - 22.8 °F 37% 30.19 in 10.0 mi NNE 19.6 mph 31.1 mph N/A   Scattered Clouds
2:55 PM 49.1 °F - 23.0 °F 36% 30.18 in 10.0 mi North 21.9 mph 26.5 mph N/A   Scattered Clouds
3:15 PM 48.6 °F - 22.5 °F 36% 30.17 in 10.0 mi North 12.7 mph 33.4 mph N/A   Scattered Clouds
3:35 PM 48.9 °F - 22.3 °F 35% 30.16 in 10.0 mi North 15.0 mph 29.9 mph N/A   Mostly Cloudy
3:55 PM 49.1 °F - 22.1 °F 35% 30.16 in 10.0 mi North 17.3 mph 27.6 mph N/A   Scattered Clouds
4:15 PM 50.0 °F - 21.9 °F 33% 30.15 in 10.0 mi North 13.8 mph 25.3 mph N/A   Scattered Clouds
4:35 PM 50.7 °F - 21.7 °F 32% 30.14 in 10.0 mi North 15.0 mph 25.3 mph N/A   Scattered Clouds
4:55 PM 50.9 °F - 21.4 °F 31% 30.14 in 10.0 mi North 15.0 mph 24.2 mph N/A   Scattered Clouds
5:15 PM 50.7 °F - 20.8 °F 31% 30.14 in 10.0 mi NNE 12.7 mph 25.3 mph N/A   Clear
5:35 PM 50.7 °F - 20.3 °F 30% 30.14 in 10.0 mi North 18.4 mph 21.9 mph N/A   Clear
5:55 PM 50.4 °F - 19.9 °F 30% 30.14 in 10.0 mi North 17.3 mph 23.0 mph N/A   Clear
6:15 PM 50.0 °F - 19.4 °F 30% 30.13 in 10.0 mi NNE 16.1 mph 20.7 mph N/A   Clear
6:35 PM 50.0 °F - 19.0 °F 29% 30.13 in 10.0 mi North 13.8 mph 17.3 mph N/A   Clear
6:55 PM 49.6 °F - 18.9 °F 30% 30.13 in 10.0 mi NNE 13.8 mph 18.4 mph N/A   Clear
7:15 PM 48.6 °F - 18.5 °F 30% 30.13 in 10.0 mi NNE 16.1 mph - N/A   Clear
7:35 PM 47.3 °F - 18.7 °F 32% 30.12 in 10.0 mi NNE 9.2 mph - N/A   Clear
7:55 PM 45.3 °F 41.6 °F 18.5 °F 34% 30.12 in 10.0 mi NNE 6.9 mph - N/A   Clear
8:15 PM 43.5 °F 40.1 °F 18.3 °F 36% 30.13 in 10.0 mi NNE 5.8 mph - N/A   Clear
8:35 PM 43.0 °F - 18.3 °F 37% 30.12 in 10.0 mi Calm Calm - N/A   Clear
8:55 PM 41.2 °F - 18.3 °F 40% 30.13 in 10.0 mi Calm Calm - N/A   Clear
9:15 PM 39.2 °F - 18.1 °F 43% 30.14 in 10.0 mi Calm Calm - N/A   Clear
9:35 PM 36.7 °F - 17.8 °F 46% 30.13 in 10.0 mi Calm Calm - N/A   Clear
9:55 PM 34.5 °F 31.6 °F 17.8 °F 50% 30.12 in 10.0 mi South 3.5 mph - N/A   Clear
10:15 PM 31.3 °F 25.6 °F 16.7 °F 55% 30.12 in 10.0 mi WSW 5.8 mph - N/A   Clear
10:35 PM 32.4 °F 26.9 °F 18.5 °F 57% 30.13 in 10.0 mi SW 5.8 mph - N/A   Clear
10:55 PM 32.9 °F 28.5 °F 17.8 °F 54% 30.12 in 10.0 mi SSW 4.6 mph - N/A   Clear
11:15 PM 29.5 °F 23.4 °F 16.7 °F 59% 30.10 in 10.0 mi SSE 5.8 mph - N/A   Clear
11:35 PM 28.0 °F 24.2 °F 16.2 °F 61% 30.10 in 10.0 mi WSW 3.5 mph - N/A   Clear
11:55 PM 28.9 °F 22.8 °F 18.3 °F 65% 30.11 in 10.0 mi SW 5.8 mph - N/A   Clear